RH
15 15 14 13 14 13 13 14 14 14 15 16 15 14 15 17 19 22 23 23 23 22 21 22 26 28 31 32 32 33 35 38 41 43 41 41 41 39 37 36 38 44
14 15 14 14 14 13 12 13 13 13 14 15 15 14 14 14 17 18 21 23 23 22 20 20 22 26 30 31 31 30 31 33 37 41 40 41 42 39 37 36 36 40
14 14 15 14 13 12 11 12 13 14 15 15 16 16 16 16 16 17 19 20 22 21 20 19 21 24 28 30 30 28 28 29 32 37 39 40 42 41 37 37 37 36
13 13 13 13 11 12 12 12 13 15 16 17 16 17 18 19 19 19 18 19 19 19 18 18 20 23 26 29 31 28 27 27 28 32 36 39 41 42 39 39 41 38
12 12 12 12 12 12 12 13 13 14 16 18 17 17 18 19 20 21 20 20 19 19 18 17 18 20 25 29 31 30 27 26 27 30 35 37 39 42 41 39 43 44
11 11 12 11 11 12 12 12 13 15 16 17 18 18 18 18 20 20 21 21 20 20 20 18 17 18 21 25 28 30 28 26 26 29 33 36 37 40 42 39 40 44
11 11 11 11 11 12 12 13 14 15 16 17 19 20 20 20 19 20 22 23 22 22 21 19 18 17 17 19 22 26 28 27 25 27 31 35 37 37 40 40 37 40
11 10 11 11 11 12 12 13 14 15 16 18 20 21 22 21 20 20 21 23 24 23 22 21 20 19 18 17 18 20 24 26 26 26 29 33 37 37 36 37 36 36
10 10 10 10 11 11 12 13 15 16 18 20 22 23 23 23 22 21 20 21 23 24 23 23 22 22 21 20 19 17 19 22 24 26 28 31 35 37 35 34 35 34
10 10 10 11 11 12 13 14 16 18 21 23 24 25 26 25 25 25 22 20 22 24 24 24 24 23 22 22 21 19 17 18 21 24 26 29 33 36 36 35 34 34
13 14 14 14 14 15 15 17 19 21 23 24 23 25 27 28 28 27 25 21 19 21 23 23 24 24 25 24 24 22 20 18 19 21 24 27 30 34 37 36 36 35
18 19 20 18 18 18 19 20 22 24 24 23 23 24 27 30 30 27 25 22 18 18 20 21 22 24 25 25 25 25 24 21 19 19 21 24 28 31 34 37 37 36
23 23 24 23 21 20 22 24 24 24 25 25 25 26 26 27 29 27 24 22 20 19 19 20 20 22 23 26 27 28 28 26 22 20 20 22 25 28 32 36 37 37
29 27 27 25 24 23 24 26 26 26 27 28 28 30 28 28 29 29 27 25 23 22 21 21 20 21 22 24 26 28 30 29 26 24 23 23 24 26 30 34 36 37
35 33 31 29 27 27 26 27 27 28 29 30 31 33 34 33 33 32 31 30 29 26 25 24 23 20 20 21 23 25 27 29 28 27 26 26 26 27 29 32 35 38
40 38 36 33 30 29 29 28 29 30 31 32 33 35 37 37 36 34 33 32 33 32 31 28 26 22 19 18 19 19 21 24 26 27 28 28 27 28 29 32 34 36
45 42 40 37 33 30 30 30 31 32 34 35 37 38 39 39 38 36 34 33 34 35 35 33 30 26 22 18 17 16 17 19 20 23 25 27 27 27 28 29 30 33
46 45 44 41 37 33 31 31 32 34 35 36 38 40 40 39 38 37 36 35 34 35 36 37 35 32 28 24 20 17 17 17 18 20 22 24 25 26 26 26 28 30
44 46 46 43 40 37 34 33 34 34 35 36 38 40 40 38 36 35 36 36 35 35 36 37 38 37 35 32 29 24 21 19 19 19 21 22 23 24 25 25 26 27
40 44 47 48 45 42 39 37 35 33 34 36 38 39 38 36 34 34 34 35 36 36 36 37 39 39 39 39 37 34 30 27 25 22 21 22 23 23 25 25 24 25
34 40 47 50 49 47 44 40 37 35 36 39 39 38 36 35 35 35 34 35 36 36 37 38 39 40 41 42 42 42 40 38 35 32 29 27 27 27 28 28 28 28
31 38 46 50 51 50 48 44 41 39 38 40 40 39 39 38 37 37 37 37 38 38 39 38 39 40 40 42 44 46 47 45 43 41 40 37 36 35 35 34 33 33
32 38 44 48 50 50 49 47 44 43 42 42 42 42 42 41 41 40 40 40 40 40 40 39 40 42 43 43 44 46 49 49 48 48 47 46 45 44 41 38 37 36
36 41 45 49 49 49 49 48 47 47 46 46 45 45 44 44 44 44 44 43 42 42 42 41 42 44 45 46 47 48 50 51 52 53 53 50 50 51 49 45 42 39
37 43 46 47 48 48 49 49 48 48 49 49 49 48 47 47 48 48 48 48 47 46 45 45 46 47 47 48 50 52 52 53 55 57 56 55 55 55 54 52 49 45
35 39 42 43 44 45 47 47 47 48 50 51 51 51 51 51 52 52 53 54 54 53 51 49 49 51 52 52 52 53 54 55 55 55 55 56 58 58 57 53 50 48